Location: Baia Mare
(47.6567°N, 23.5850°E)
Time: 06:34:10
(UTC+03:00)

ISS - Pass Details

Date: 07 September 2018
Orbit: 403 x 409 km, 51.6° (Epoch: 24 September)

Event Time Altitude Azimuth Distance (km) Brightness Sun altitude
Exits shadow 04:51:55 62° 321° (NW) 462 -3.7 -19.5°
Maximum altitude 04:52:05 63° 341° (NNW) 456 -3.6 -19.4°
Drops below altitude 10° 04:55:21 10° 64° (ENE) 1,464 0.2 -19.0°
Sets 04:57:27 0° 68° (ENE) 2,324 1.6 -18.7°
